VK6YY Weather Reports


time (UTC)temp
F
wind
direction
speed
knots
gust
knots
rain 1hr
in
rain 24hr
in
rain mn
in
humidity
%
barometer
mb
20260505003049 58 149 2.6 7.0 0.00 0.00 0.00 75 1024.5
20260505001545 56 355 1.7 6.1 0.00 0.00 0.00 80 1024.3
20260505000040 55 134 1.7 7.0 0.00 0.00 0.00 81 1024.1
20260504234533 54 78 1.7 5.2 0.00 0.00 0.00 82 1024.0
20260504233031 53 37 1.7 6.1 0.00 0.00 0.00 82 1023.8
20260504231528 53 35 2.6 7.0 0.00 0.00 0.00 82 1023.6
20260504230027 53 71 1.7 7.0 0.00 0.00 0.00 82 1023.5
20260504224522 53 91 0.9 6.1 0.00 0.00 0.00 81 1023.3
20260504223020 53 70 2.6 7.0 0.00 0.00 0.00 81 1023.1
20260504221522 53 165 2.6 7.0 0.00 0.00 0.00 81 1023.0
20260504220021 53 66 1.7 7.0 0.00 0.00 0.00 80 1022.9
20260504214552 54 25 2.6 8.7 0.00 0.00 0.00 80 1022.8
20260504213050 54 123 1.7 6.1 0.00 0.00 0.00 80 1022.8
20260504211539 54 103 2.6 5.2 0.00 0.00 0.00 80 1022.9
20260504210037 54 114 2.6 6.1 0.00 0.00 0.00 79 1023.0
20260504204535 54 55 0.0 7.8 0.00 0.00 0.00 79 1022.9
20260504203034 54 135 2.6 6.1 0.00 0.00 0.00 79 1022.9
20260504201501 55 104 1.7 6.1 0.00 0.00 0.00 78 1022.9
20260504194557 55 101 2.6 6.1 0.00 0.00 0.00 77 1023.1
20260504193059 55 138 1.7 6.1 0.00 0.00 0.00 77 1023.1
20260504191558 56 130 1.7 5.2 0.00 0.00 0.00 77 1023.1
20260504190108 56 92 0.0 6.1 0.00 0.00 0.00 77 1023.2
20260504184524 56 121 0.9 6.1 0.00 0.00 0.00 77 1023.4
20260504183037 56 121 1.7 6.1 0.00 0.00 0.00 77 1023.4
20260504181525 56 78 1.7 7.0 0.00 0.00 0.00 76 1023.5
20260504180022 56 73 2.6 6.1 0.00 0.00 0.00 76 1023.6
20260504174522 56 125 1.7 5.2 0.00 0.00 0.00 76 1023.6
20260504173021 57 105 2.6 7.0 0.00 0.00 0.00 75 1023.6
20260504171517 57 82 2.6 5.2 0.00 0.00 0.00 76 1023.7
20260504081534 67 171 7.8 13.0 0.00 0.00 0.00 68 1023.0
20260504044537 70 122 1.7 6.1 0.00 0.00 0.00 53 1024.2
20260504043027 70 355 0.9 6.1 0.00 0.00 0.00 53 1024.4
20260504041523 70 355 0.9 5.2 0.00 0.00 0.00 53 1024.6
20260504040020 70 340 0.9 4.3 0.00 0.00 0.00 55 1024.9
20260504034517 69 32 0.9 7.0 0.00 0.00 0.00 55 1025.1
20260504033010 69 63 2.6 7.8 0.00 0.00 0.00 56 1025.3
20260504031508 68 84 1.7 6.1 0.00 0.00 0.00 59 1025.5
20260504030009 67 163 1.7 7.8 0.00 0.00 0.00 59 1025.5
20260504024600 67 109 0.9 8.7 0.00 0.00 0.00 61 1025.7
20260504023101 66 32 2.6 8.7 0.00 0.00 0.00 63 1025.8
20260504021551 65 30 0.9 7.0 0.00 0.00 0.00 66 1025.9
20260504020043 63 82 0.9 6.1 0.00 0.00 0.00 69 1026.0
20260504014547 63 16 2.6 7.8 0.00 0.00 0.00 70 1026.0
20260504013005 62 57 4.3 9.6 0.00 0.00 0.00 70 1025.9
20260504011600 61 360 1.7 7.0 0.00 0.00 0.00 73 1026.0
20260504010028 60 62 2.6 6.1 0.00 0.00 0.00 74 1025.9
20260504004521 59 197 1.7 6.1 0.00 0.00 0.00 78 1026.0